When you browse on this site, cookies collect data to enhance your experience and personalize the content and advertising you see.
Visit our Privacy Policy to learn more. By continuing to use the site, you agree to this use of cookies and data.
  • In Hungary
  • List of Countries
  • For 7 days
  • Water Temperature
  • Weather Map
  • News
  • Weather Widgets
  • user-avatar
    Login

    Hourly Weather Amurrio

    Today, 14 December, Saturday

    Time Temperature Precipitation Wind Pressure Humidity
    00:00 +9°C° 0 mm 2 mps 721 mmHg 87%
    01:00 +9°C° 0 mm 2 mps 721 mmHg 87%
    02:00 +8°C° 0 mm 2 mps 721 mmHg 87%
    03:00 +8°C° 0 mm 2 mps 721 mmHg 87%
    04:00 +8°C° 0 mm 2 mps 721 mmHg 86%
    05:00 +8°C° 0 mm 3 mps 722 mmHg 85%
    06:00 +8°C° 0 mm 3 mps 722 mmHg 84%
    07:00 +8°C° 0 mm 3 mps 722 mmHg 83%
    08:00 +9°C° 0 mm 3 mps 722 mmHg 82%
    09:00 +9°C° 0 mm 3 mps 722 mmHg 81%
    10:00 +10°C° 0 mm 4 mps 722 mmHg 76%
    11:00 +11°C° 0 mm 4 mps 722 mmHg 71%
    12:00 +13°C° 0 mm 5 mps 722 mmHg 66%
    13:00 +13°C° 0 mm 5 mps 721 mmHg 65%
    14:00 +13°C° 0 mm 5 mps 721 mmHg 64%
    15:00 +13°C° 0 mm 6 mps 720 mmHg 64%
    16:00 +11°C° 0 mm 6 mps 720 mmHg 65%
    17:00 +12°C° 0 mm 5 mps 720 mmHg 67%
    18:00 +10°C° 0 mm 5 mps 720 mmHg 69%
    19:00 +10°C° 0 mm 5 mps 720 mmHg 70%
    20:00 +10°C° 0 mm 5 mps 720 mmHg 72%
    21:00 +10°C° 0 mm 5 mps 720 mmHg 74%
    22:00 +10°C° 0 mm 6 mps 720 mmHg 73%
    23:00 +10°C° 0 mm 6 mps 720 mmHg 72%

    Tomorrow, 15 December, Sunday

    Time Temperature Precipitation Wind Pressure Humidity
    00:00 +10°C° 0 mm 6 mps 720 mmHg 71%
    01:00 +10°C° 0 mm 6 mps 720 mmHg 72%
    02:00 +10°C° 0 mm 6 mps 720 mmHg 72%
    03:00 +9°C° 0 mm 5 mps 720 mmHg 73%
    04:00 +9°C° 0 mm 5 mps 719 mmHg 74%
    05:00 +10°C° 0 mm 4 mps 719 mmHg 76%
    06:00 +10°C° 0 mm 4 mps 719 mmHg 77%
    07:00 +10°C° 0 mm 4 mps 719 mmHg 77%
    08:00 +10°C° 0 mm 4 mps 719 mmHg 76%
    09:00 +10°C° 0 mm 4 mps 720 mmHg 76%
    10:00 +10°C° 0 mm 5 mps 719 mmHg 71%
    11:00 +12°C° 0 mm 5 mps 719 mmHg 67%
    12:00 +13°C° 0 mm 6 mps 719 mmHg 62%
    13:00 +13°C° 0 mm 5 mps 718 mmHg 63%
    14:00 +12°C° 0 mm 4 mps 718 mmHg 64%
    15:00 +12°C° 0 mm 4 mps 717 mmHg 66%
    16:00 +12°C° 0 mm 3 mps 717 mmHg 67%
    17:00 +11°C° 0 mm 3 mps 717 mmHg 68%
    18:00 +11°C° 0 mm 3 mps 717 mmHg 69%
    19:00 +10°C° 0 mm 3 mps 717 mmHg 70%
    20:00 +10°C° 0 mm 3 mps 717 mmHg 71%
    21:00 +9°C° 0 mm 3 mps 717 mmHg 73%
    22:00 +9°C° 0 mm 3 mps 716 mmHg 75%
    23:00 +8°C° 0 mm 2 mps 715 mmHg 77%

    Day after tomorrow, 16 December, Monday

    Time Temperature Precipitation Wind Pressure Humidity
    00:00 +8°C° 0 mm 2 mps 715 mmHg 80%
    01:00 +8°C° 0.1 mm 2 mps 714 mmHg 81%
    02:00 +8°C° 0.1 mm 2 mps 714 mmHg 83%
    03:00 +8°C° 0.1 mm 2 mps 713 mmHg 84%
    04:00 +8°C° 0 mm 2 mps 712 mmHg 84%
    05:00 +8°C° 0 mm 3 mps 712 mmHg 85%
    06:00 +8°C° 0 mm 3 mps 711 mmHg 85%
    07:00 +7°C° 0 mm 4 mps 711 mmHg 83%
    08:00 +8°C° 0 mm 4 mps 710 mmHg 80%
    09:00 +8°C° 0 mm 5 mps 710 mmHg 78%
    10:00 +9°C° 0 mm 6 mps 709 mmHg 74%
    11:00 +10°C° 0 mm 6 mps 709 mmHg 70%
    12:00 +11°C° 0 mm 7 mps 708 mmHg 66%
    13:00 +11°C° 0 mm 7 mps 708 mmHg 65%
    14:00 +11°C° 0 mm 7 mps 708 mmHg 64%
    15:00 +11°C° 0 mm 7 mps 707 mmHg 63%
    16:00 +12°C° 0.1 mm 5 mps 708 mmHg 67%
    17:00 +11°C° 0.1 mm 4 mps 708 mmHg 72%
    18:00 +10°C° 0.1 mm 2 mps 709 mmHg 76%
    19:00 +9°C° 0.5 mm 2 mps 709 mmHg 80%
    20:00 +10°C° 0.5 mm 1 mps 710 mmHg 84%
    21:00 +10°C° 0.5 mm 1 mps 710 mmHg 88%
    22:00 +9°C° 1.3 mm 1 mps 710 mmHg 90%
    23:00 +9°C° 1.3 mm 1 mps 711 mmHg 92%

    17 December, Tuesday

    Time Temperature Precipitation Wind Pressure Humidity
    00:00 +9°C° 1.3 mm 1 mps 711 mmHg 93%
    01:00 +9°C° 0.6 mm 1 mps 711 mmHg 92%
    02:00 +8°C° 0.6 mm 1 mps 711 mmHg 91%
    03:00 +8°C° 0.6 mm 1 mps 711 mmHg 89%
    04:00 +7°C° 0.2 mm 1 mps 711 mmHg 89%
    05:00 +7°C° 0.2 mm 1 mps 712 mmHg 89%
    06:00 +6°C° 0.2 mm 1 mps 712 mmHg 89%
    07:00 +6°C° 0.1 mm 1 mps 713 mmHg 88%
    08:00 +6°C° 0.1 mm 1 mps 714 mmHg 88%
    09:00 +6°C° 0.1 mm 2 mps 714 mmHg 87%
    10:00 +5°C° 0.1 mm 2 mps 715 mmHg 88%
    11:00 +6°C° 0.1 mm 1 mps 716 mmHg 89%
    12:00 +6°C° 0.1 mm 1 mps 716 mmHg 90%
    13:00 +6°C° 0.2 mm 1 mps 716 mmHg 90%
    14:00 +6°C° 0.2 mm 1 mps 717 mmHg 90%
    15:00 +6°C° 0.2 mm 1 mps 717 mmHg 90%
    16:00 +6°C° 0.1 mm 1 mps 718 mmHg 91%
    17:00 +6°C° 0.1 mm 1 mps 718 mmHg 91%
    18:00 +6°C° 0.1 mm 1 mps 719 mmHg 92%
    19:00 +5°C° 0 mm 1 mps 720 mmHg 92%
    20:00 +5°C° 0 mm 1 mps 720 mmHg 92%
    21:00 +5°C° 0 mm 1 mps 721 mmHg 92%
    22:00 +4°C° 0 mm 1 mps 721 mmHg 92%
    23:00 +4°C° 0 mm 1 mps 721 mmHg 91%

    18 December, Wednesday

    Time Temperature Precipitation Wind Pressure Humidity
    00:00 +4°C° 0 mm 1 mps 721 mmHg 91%
    01:00 +3°C° 0 mm 1 mps 721 mmHg 91%
    02:00 +3°C° 0 mm 1 mps 720 mmHg 91%
    03:00 +2°C° 0 mm 2 mps 720 mmHg 91%
    04:00 +2°C° 0 mm 2 mps 720 mmHg 90%
    05:00 +2°C° 0 mm 2 mps 720 mmHg 90%
    06:00 +2°C° 0 mm 2 mps 720 mmHg 90%
    07:00 +1°C° 0 mm 3 mps 719 mmHg 87%
    08:00 +2°C° 0 mm 3 mps 719 mmHg 83%
    09:00 +3°C° 0 mm 4 mps 719 mmHg 80%
    10:00 +4°C° 0 mm 4 mps 719 mmHg 73%
    11:00 +6°C° 0 mm 5 mps 718 mmHg 66%
    12:00 +8°C° 0 mm 5 mps 718 mmHg 60%
    13:00 +8°C° 0 mm 5 mps 717 mmHg 62%
    14:00 +8°C° 0 mm 5 mps 717 mmHg 64%
    15:00 +8°C° 0 mm 5 mps 716 mmHg 67%
    16:00 +7°C° 0 mm 5 mps 716 mmHg 68%
    17:00 +7°C° 0 mm 4 mps 716 mmHg 69%
    18:00 +7°C° 0 mm 3 mps 716 mmHg 71%
    19:00 +7°C° 0.1 mm 3 mps 715 mmHg 73%
    20:00 +7°C° 0.1 mm 3 mps 715 mmHg 75%
    21:00 +7°C° 0.1 mm 3 mps 715 mmHg 77%
    22:00 +7°C° 0.4 mm 3 mps 715 mmHg 80%
    23:00 +6°C° 0.4 mm 4 mps 714 mmHg 83%

    19 December, Thursday

    Time Temperature Precipitation Wind Pressure Humidity
    00:00 +6°C° 0.4 mm 4 mps 714 mmHg 85%
    01:00 +6°C° 0.2 mm 4 mps 713 mmHg 87%
    02:00 +5°C° 0.2 mm 3 mps 713 mmHg 89%
    03:00 +6°C° 0.2 mm 2 mps 712 mmHg 91%
    04:00 +6°C° 0.8 mm 2 mps 713 mmHg 92%
    05:00 +6°C° 0.8 mm 2 mps 713 mmHg 93%
    06:00 +6°C° 0.8 mm 2 mps 713 mmHg 94%
    07:00 +7°C° 0.4 mm 2 mps 714 mmHg 92%
    08:00 +7°C° 0.4 mm 2 mps 715 mmHg 90%
    09:00 +7°C° 0.4 mm 3 mps 715 mmHg 88%
    10:00 +7°C° 0 mm 4 mps 715 mmHg 81%
    11:00 +8°C° 0 mm 5 mps 715 mmHg 75%
    12:00 +9°C° 0 mm 7 mps 715 mmHg 69%
    13:00 +9°C° 0 mm 7 mps 714 mmHg 68%
    14:00 +9°C° 0 mm 7 mps 713 mmHg 67%
    15:00 +9°C° 0 mm 7 mps 712 mmHg 66%
    16:00 +9°C° 0.1 mm 7 mps 710 mmHg 67%
    17:00 +9°C° 0.1 mm 7 mps 709 mmHg 69%
    18:00 +8°C° 0.1 mm 7 mps 708 mmHg 70%
    19:00 +8°C° 0 mm 6 mps 707 mmHg 71%
    20:00 +8°C° 0 mm 6 mps 706 mmHg 73%
    21:00 +8°C° 0 mm 5 mps 705 mmHg 74%
    22:00 +8°C° 0.8 mm 5 mps 704 mmHg 78%
    23:00 +8°C° 0.8 mm 5 mps 703 mmHg 82%
    Show more